owner,sensor,date,latitude,longitude,vertical_datum,direction_of_sea_water_velocity,sea_water_speed,upward_sea_water_velocity,qcFlag 
TABS,ioos:station:wmo:42048:1,2011-01-01T00:30:00Z,27.9396,-96.8429,2.0,85.99583642,2.004894012,-99999.0,'11133222,11111222,99999999' 
TABS,ioos:station:wmo:42048:1,2011-01-01T02:00:00Z,27.9396,-96.8429,2.0,212.0744191,36.79679334,-99999.0,'11111222,11111222,99999999' 
TABS,ioos:station:wmo:42048:1,2011-01-01T02:30:00Z,27.9396,-96.8429,2.0,214.012273,34.98549557,-99999.0,'11111222,11111222,99999999' 
TABS,ioos:station:wmo:42048:1,2011-01-01T03:00:00Z,27.9396,-96.8429,2.0,216.3660453,35.04535347,-99999.0,'11111222,11111222,99999999' 
TABS,ioos:station:wmo:42048:1,2011-01-01T03:30:00Z,27.9396,-96.8429,2.0,225.1342096,33.12804401,-99999.0,'11111222,11111222,99999999' 
TABS,ioos:station:wmo:42048:1,2011-01-01T04:00:00Z,27.9396,-96.8429,2.0,221.1478047,34.20932183,-99999.0,'11111222,11111222,99999999' 
TABS,ioos:station:wmo:42048:1,2011-01-01T04:30:00Z,27.9396,-96.8429,2.0,221.9123342,34.26663246,-99999.0,'11111222,11111222,99999999' 
TABS,ioos:station:wmo:42048:1,2011-01-01T05:00:00Z,27.9396,-96.8429,2.0,227.3669831,38.0040682,-99999.0,'11111222,11111222,99999999' 
TABS,ioos:station:wmo:42048:1,2011-01-01T05:30:00Z,27.9396,-96.8429,2.0,228.6642692,38.9422136,-99999.0,'11111222,11111222,99999999' 
TABS,ioos:station:wmo:42048:1,2011-01-01T06:00:00Z,27.9396,-96.8429,2.0,222.9356027,41.03174503,-99999.0,'11111222,11111222,99999999' 
TABS,ioos:station:wmo:42048:1,2011-01-01T06:30:00Z,27.9396,-96.8429,2.0,224.8002572,40.63060177,-99999.0,'11111222,11111222,99999999' 
TABS,ioos:station:wmo:42048:1,2011-01-01T07:00:00Z,27.9396,-96.8429,2.0,221.2891966,41.62978861,-99999.0,'11111222,11111222,99999999' 
TABS,ioos:station:wmo:42048:1,2011-01-01T07:30:00Z,27.9396,-96.8429,2.0,216.0810722,44.47021138,-99999.0,'11111222,11111222,99999999' 
TABS,ioos:station:wmo:42048:1,2011-01-01T08:00:00Z,27.9396,-96.8429,2.0,218.8239522,42.98700501,-99999.0,'11111222,11111222,99999999' 
TABS,ioos:station:wmo:42048:1,2011-01-01T08:30:00Z,27.9396,-96.8429,2.0,214.2920229,47.49605457,-99999.0,'11111222,11111222,99999999' 
TABS,ioos:station:wmo:42048:1,2011-01-01T09:00:00Z,27.9396,-96.8429,2.0,213.9168061,48.99705297,-99999.0,'11111222,11111222,99999999' 
TABS,ioos:station:wmo:42048:1,2011-01-01T09:30:00Z,27.9396,-96.8429,2.0,215.0994473,54.90420111,-99999.0,'11111222,11111222,99999999' 
TABS,ioos:station:wmo:42048:1,2011-01-01T10:00:00Z,27.9396,-96.8429,2.0,213.8773067,57.62256502,-99999.0,'11111222,11111222,99999999' 
TABS,ioos:station:wmo:42048:1,2011-01-01T10:30:00Z,27.9396,-96.8429,2.0,215.8499739,61.36571681,-99999.0,'11111222,11111222,99999999' 
TABS,ioos:station:wmo:42048:1,2011-01-01T11:00:00Z,27.9396,-96.8429,2.0,215.6874685,59.91075112,-99999.0,'11111222,11111222,99999999' 
TABS,ioos:station:wmo:42048:1,2011-01-01T11:30:00Z,27.9396,-96.8429,2.0,217.9608846,62.37731399,-99999.0,'11111222,11111222,99999999' 
TABS,ioos:station:wmo:42048:1,2011-01-01T12:00:00Z,27.9396,-96.8429,2.0,220.9950821,64.49712009,-99999.0,'11111222,11111222,99999999' 
TABS,ioos:station:wmo:42048:1,2011-01-01T12:30:00Z,27.9396,-96.8429,2.0,220.4768748,68.59791032,-99999.0,'11111222,11111222,99999999' 
TABS,ioos:station:wmo:42048:1,2011-01-01T13:00:00Z,27.9396,-96.8429,2.0,223.33931,61.25409456,-99999.0,'11111222,11111222,99999999' 
TABS,ioos:station:wmo:42048:1,2011-01-01T13:30:00Z,27.9396,-96.8429,2.0,224.2796029,65.8297691,-99999.0,'11111222,11111222,99999999' 
TABS,ioos:station:wmo:42048:1,2011-01-01T14:00:00Z,27.9396,-96.8429,2.0,224.0150839,70.77769705,-99999.0,'11111222,11111222,99999999' 
TABS,ioos:station:wmo:42048:1,2011-01-01T14:30:00Z,27.9396,-96.8429,2.0,218.3779953,65.79680007,-99999.0,'11111222,11111222,99999999' 
TABS,ioos:station:wmo:42048:1,2011-01-01T15:00:00Z,27.9396,-96.8429,2.0,219.0455165,66.52997069,-99999.0,'11111222,11111222,99999999' 
TABS,ioos:station:wmo:42048:1,2011-01-01T15:30:00Z,27.9396,-96.8429,2.0,222.6402435,64.92501829,-99999.0,'11111222,11111222,99999999' 
TABS,ioos:station:wmo:42048:1,2011-01-01T16:00:00Z,27.9396,-96.8429,2.0,227.1817925,65.36992734,-99999.0,'11111222,11111222,99999999' 
TABS,ioos:station:wmo:42048:1,2011-01-01T16:30:00Z,27.9396,-96.8429,2.0,220.216043,68.93554743,-99999.0,'11111222,11111222,99999999' 
TABS,ioos:station:wmo:42048:1,2011-01-01T17:00:00Z,27.9396,-96.8429,2.0,221.7721668,70.20685508,-99999.0,'11111222,11111222,99999999' 
TABS,ioos:station:wmo:42048:1,2011-01-01T17:30:00Z,27.9396,-96.8429,2.0,221.6189132,69.78561026,-99999.0,'11111222,11111222,99999999' 
TABS,ioos:station:wmo:42048:1,2011-01-01T18:00:00Z,27.9396,-96.8429,2.0,219.0980839,67.53307486,-99999.0,'11111222,11111222,99999999' 
TABS,ioos:station:wmo:42048:1,2011-01-01T18:30:00Z,27.9396,-96.8429,2.0,219.787772,62.89555946,-99999.0,'11111222,11111222,99999999' 
TABS,ioos:station:wmo:42048:1,2011-01-01T19:00:00Z,27.9396,-96.8429,2.0,219.0112143,67.16691522,-99999.0,'11111222,11111222,99999999' 
TABS,ioos:station:wmo:42048:1,2011-01-01T19:30:00Z,27.9396,-96.8429,2.0,217.6801026,69.98700236,-99999.0,'11111222,11111222,99999999' 
TABS,ioos:station:wmo:42048:1,2011-01-01T20:00:00Z,27.9396,-96.8429,2.0,220.0045662,62.20709445,-99999.0,'11111222,11111222,99999999' 
TABS,ioos:station:wmo:42048:1,2011-01-01T20:30:00Z,27.9396,-96.8429,2.0,220.5392391,58.37168149,-99999.0,'11111222,11111222,99999999' 
TABS,ioos:station:wmo:42048:1,2011-01-01T21:00:00Z,27.9396,-96.8429,2.0,217.0598459,54.21029884,-99999.0,'11111222,11111222,99999999' 
TABS,ioos:station:wmo:42048:1,2011-01-01T21:30:00Z,27.9396,-96.8429,2.0,219.9087609,60.95973835,-99999.0,'11111222,11111222,99999999' 
TABS,ioos:station:wmo:42048:1,2011-01-01T22:00:00Z,27.9396,-96.8429,2.0,221.262283,55.54115051,-99999.0,'11111222,11111222,99999999' 
TABS,ioos:station:wmo:42048:1,2011-01-01T22:30:00Z,27.9396,-96.8429,2.0,218.6912468,59.20392048,-99999.0,'11111222,11111222,99999999' 
TABS,ioos:station:wmo:42048:1,2011-01-01T23:00:00Z,27.9396,-96.8429,2.0,222.4553631,56.54650564,-99999.0,'11111222,11111222,99999999' 
TABS,ioos:station:wmo:42048:1,2011-01-01T23:30:00Z,27.9396,-96.8429,2.0,220.8277946,57.54125477,-99999.0,'11111222,11111222,99999999' 
TABS,ioos:station:wmo:42048:1,2011-01-02T00:00:00Z,27.9396,-96.8429,2.0,222.257172,52.31511063,-99999.0,'11111222,11111222,99999999' 
TABS,ioos:station:wmo:42048:1,2011-01-02T00:30:00Z,27.9396,-96.8429,2.0,90.0,38.0,-99999.0,'11111222,11111222,99999999' 
TABS,ioos:station:wmo:42048:1,2011-01-02T01:00:00Z,27.9396,-96.8429,2.0,223.6304549,50.89793709,-99999.0,'11111222,11111222,99999999' 
TABS,ioos:station:wmo:42048:1,2011-01-02T01:30:00Z,27.9396,-96.8429,2.0,85.99583642,2.004894012,-99999.0,'11133222,11111222,99999999' 
TABS,ioos:station:wmo:42048:1,2011-01-02T02:00:00Z,27.9396,-96.8429,2.0,219.4726722,50.51011978,-99999.0,'11111222,11111222,99999999' 
TABS,ioos:station:wmo:42048:1,2011-01-02T02:30:00Z,27.9396,-96.8429,2.0,221.4985653,48.05273874,-99999.0,'11111222,11111222,99999999' 
TABS,ioos:station:wmo:42048:1,2011-01-02T03:00:00Z,27.9396,-96.8429,2.0,220.8925085,48.17870899,-99999.0,'11111222,11111222,99999999' 
TABS,ioos:station:wmo:42048:1,2011-01-02T03:30:00Z,27.9396,-96.8429,2.0,221.5317009,51.55056256,-99999.0,'11111222,11111222,99999999' 
TABS,ioos:station:wmo:42048:1,2011-01-02T04:00:00Z,27.9396,-96.8429,2.0,221.2894618,43.5996617,-99999.0,'11111222,11111222,99999999' 
TABS,ioos:station:wmo:42048:1,2011-01-02T04:30:00Z,27.9396,-96.8429,2.0,219.9432021,47.33409131,-99999.0,'11111222,11111222,99999999' 
TABS,ioos:station:wmo:42048:1,2011-01-02T05:00:00Z,27.9396,-96.8429,2.0,221.8198616,45.63622465,-99999.0,'11111222,11111222,99999999' 
TABS,ioos:station:wmo:42048:1,2011-01-02T05:30:00Z,27.9396,-96.8429,2.0,217.8599939,54.73017632,-99999.0,'11111222,11111222,99999999' 
TABS,ioos:station:wmo:42048:1,2011-01-02T06:00:00Z,27.9396,-96.8429,2.0,219.3685757,51.74120602,-99999.0,'11111222,11111222,99999999' 
TABS,ioos:station:wmo:42048:1,2011-01-02T06:30:00Z,27.9396,-96.8429,2.0,219.1163423,53.66925749,-99999.0,'11111222,11111222,99999999' 
TABS,ioos:station:wmo:42048:1,2011-01-02T07:00:00Z,27.9396,-96.8429,2.0,216.9096119,51.55201257,-99999.0,'11111222,11111222,99999999' 
TABS,ioos:station:wmo:42048:1,2011-01-02T07:30:00Z,27.9396,-96.8429,2.0,219.8307103,54.78314522,-99999.0,'11111222,11111222,99999999' 
TABS,ioos:station:wmo:42048:1,2011-01-02T08:00:00Z,27.9396,-96.8429,2.0,215.8314153,52.10055278,-99999.0,'11111222,11111222,99999999' 
TABS,ioos:station:wmo:42048:1,2011-01-02T08:30:00Z,27.9396,-96.8429,2.0,218.846049,49.40739317,-99999.0,'11111222,11111222,99999999' 
TABS,ioos:station:wmo:42048:1,2011-01-02T09:00:00Z,27.9396,-96.8429,2.0,216.1724115,53.91199124,-99999.0,'11111222,11111222,99999999' 
TABS,ioos:station:wmo:42048:1,2011-01-02T09:30:00Z,27.9396,-96.8429,2.0,219.4755674,53.40122564,-99999.0,'11111222,11111222,99999999' 
TABS,ioos:station:wmo:42048:1,2011-01-02T10:00:00Z,27.9396,-96.8429,2.0,218.2944183,51.96006543,-99999.0,'11111222,11111222,99999999' 
TABS,ioos:station:wmo:42048:1,2011-01-02T10:30:00Z,27.9396,-96.8429,2.0,223.1262625,56.66954385,-99999.0,'11111222,11111222,99999999' 
TABS,ioos:station:wmo:42048:1,2011-01-02T11:00:00Z,27.9396,-96.8429,2.0,220.5313999,50.01009998,-99999.0,'11111222,11111222,99999999' 
TABS,ioos:station:wmo:42048:1,2011-01-02T11:30:00Z,27.9396,-96.8429,2.0,220.1982356,56.93805933,-99999.0,'11111222,11111222,99999999' 
TABS,ioos:station:wmo:42048:1,2011-01-02T12:00:00Z,27.9396,-96.8429,2.0,222.7728757,57.87089424,-99999.0,'11111222,11111222,99999999' 
TABS,ioos:station:wmo:42048:1,2011-01-02T12:30:00Z,27.9396,-96.8429,2.0,223.8509795,55.02396569,-99999.0,'11111222,11111222,99999999' 
TABS,ioos:station:wmo:42048:1,2011-01-02T13:00:00Z,27.9396,-96.8429,2.0,224.4160477,49.98090035,-99999.0,'11111222,11111222,99999999' 
TABS,ioos:station:wmo:42048:1,2011-01-02T13:30:00Z,27.9396,-96.8429,2.0,218.9842123,52.35965622,-99999.0,'11111222,11111222,99999999' 
TABS,ioos:station:wmo:42048:1,2011-01-02T14:00:00Z,27.9396,-96.8429,2.0,221.4829597,48.76198212,-99999.0,'11111222,11111222,99999999' 
TABS,ioos:station:wmo:42048:1,2011-01-02T14:30:00Z,27.9396,-96.8429,2.0,218.2222294,48.29345711,-99999.0,'11111222,11111222,99999999' 
TABS,ioos:station:wmo:42048:1,2011-01-02T15:00:00Z,27.9396,-96.8429,2.0,227.1604165,44.63603253,-99999.0,'11111222,11111222,99999999' 
TABS,ioos:station:wmo:42048:1,2011-01-02T15:30:00Z,27.9396,-96.8429,2.0,221.675007,46.69814664,-99999.0,'11111222,11111222,99999999' 
TABS,ioos:station:wmo:42048:1,2011-01-02T16:00:00Z,27.9396,-96.8429,2.0,222.6991578,55.48896557,-99999.0,'11111222,11111222,99999999' 
TABS,ioos:station:wmo:42048:1,2011-01-02T16:30:00Z,27.9396,-96.8429,2.0,214.0002291,51.6988172,-99999.0,'11111222,11111222,99999999' 
TABS,ioos:station:wmo:42048:1,2011-01-02T17:00:00Z,27.9396,-96.8429,2.0,225.7902059,48.68893611,-99999.0,'11111222,11111222,99999999' 
TABS,ioos:station:wmo:42048:1,2011-01-02T17:30:00Z,27.9396,-96.8429,2.0,225.1095395,66.38330664,-99999.0,'11111222,11111222,99999999' 
TABS,ioos:station:wmo:42048:1,2011-01-02T18:00:00Z,27.9396,-96.8429,2.0,227.9068316,63.29680719,-99999.0,'11111222,11111222,99999999' 
TABS,ioos:station:wmo:42048:1,2011-01-02T18:30:00Z,27.9396,-96.8429,2.0,227.0898386,58.16287476,-99999.0,'11111222,11111222,99999999' 
TABS,ioos:station:wmo:42048:1,2011-01-02T19:00:00Z,27.9396,-96.8429,2.0,227.4528424,59.96811569,-99999.0,'11111222,11111222,99999999' 
TABS,ioos:station:wmo:42048:1,2011-01-02T19:30:00Z,27.9396,-96.8429,2.0,226.4446477,56.64312315,-99999.0,'11111222,11111222,99999999' 
TABS,ioos:station:wmo:42048:1,2011-01-02T20:00:00Z,27.9396,-96.8429,2.0,227.1179562,53.18248772,-99999.0,'11111222,11111222,99999999' 
TABS,ioos:station:wmo:42048:1,2011-01-02T20:30:00Z,27.9396,-96.8429,2.0,224.9114509,50.50869727,-99999.0,'11111222,11111222,99999999' 
TABS,ioos:station:wmo:42048:1,2011-01-02T21:00:00Z,27.9396,-96.8429,2.0,232.5535983,40.77206151,-99999.0,'11111222,11111222,99999999' 
TABS,ioos:station:wmo:42048:1,2011-01-02T21:30:00Z,27.9396,-96.8429,2.0,217.0037826,46.97012881,-99999.0,'11111222,11111222,99999999' 
TABS,ioos:station:wmo:42048:1,2011-01-02T22:00:00Z,27.9396,-96.8429,2.0,226.2159839,60.29443838,-99999.0,'11111222,11111222,99999999' 
TABS,ioos:station:wmo:42048:1,2011-01-02T22:30:00Z,27.9396,-96.8429,2.0,225.717096,52.52093773,-99999.0,'11111222,11111222,99999999' 
TABS,ioos:station:wmo:42048:1,2011-01-02T23:00:00Z,27.9396,-96.8429,2.0,224.003468,54.4978862,-99999.0,'11111222,11111222,99999999' 
TABS,ioos:station:wmo:42048:1,2011-01-02T23:30:00Z,27.9396,-96.8429,2.0,226.0971069,50.94931795,-99999.0,'11111222,11111222,99999999' 
TABS,ioos:station:wmo:42048:1,2011-01-03T00:00:00Z,27.9396,-96.8429,2.0,229.5962062,44.29420955,-99999.0,'11111222,11111222,99999999' 
TABS,ioos:station:wmo:42048:1,2011-01-03T00:30:00Z,27.9396,-96.8429,2.0,217.710952,46.03696341,-99999.0,'11111222,11111222,99999999' 
TABS,ioos:station:wmo:42048:1,2011-01-03T01:00:00Z,27.9396,-96.8429,2.0,217.0174209,44.96214964,-99999.0,'11111222,11111222,99999999' 
TABS,ioos:station:wmo:42048:1,2011-01-03T01:30:00Z,27.9396,-96.8429,2.0,221.8604568,48.16260479,-99999.0,'11111222,11111222,99999999' 
TABS,ioos:station:wmo:42048:1,2011-01-03T02:00:00Z,27.9396,-96.8429,2.0,222.103849,39.33000509,-99999.0,'11111222,11111222,99999999' 
TABS,ioos:station:wmo:42048:1,2011-01-03T02:30:00Z,27.9396,-96.8429,2.0,226.4247587,38.95241841,-99999.0,'11111222,11111222,99999999' 
TABS,ioos:station:wmo:42048:1,2011-01-03T03:00:00Z,27.9396,-96.8429,2.0,216.1582433,50.42188612,-99999.0,'11111222,11111222,99999999' 
TABS,ioos:station:wmo:42048:1,2011-01-03T03:30:00Z,27.9396,-96.8429,2.0,221.04761,46.4755086,-99999.0,'11111222,11111222,99999999' 
TABS,ioos:station:wmo:42048:1,2011-01-03T04:00:00Z,27.9396,-96.8429,2.0,222.8404831,44.85534639,-99999.0,'11111222,11111222,99999999' 
TABS,ioos:station:wmo:42048:1,2011-01-03T04:30:00Z,27.9396,-96.8429,2.0,219.8432153,40.59666242,-99999.0,'11111222,11111222,99999999' 
TABS,ioos:station:wmo:42048:1,2011-01-03T05:00:00Z,27.9396,-96.8429,2.0,216.4577588,44.79715728,-99999.0,'11111222,11111222,99999999' 
TABS,ioos:station:wmo:42048:1,2011-01-03T05:30:00Z,27.9396,-96.8429,2.0,213.5625662,41.22264669,-99999.0,'11111222,11111222,99999999' 
TABS,ioos:station:wmo:42048:1,2011-01-03T06:00:00Z,27.9396,-96.8429,2.0,220.1253203,39.19526119,-99999.0,'11111222,11111222,99999999' 
TABS,ioos:station:wmo:42048:1,2011-01-03T06:30:00Z,27.9396,-96.8429,2.0,214.8210425,45.37499972,-99999.0,'11111222,11111222,99999999' 
TABS,ioos:station:wmo:42048:1,2011-01-03T07:00:00Z,27.9396,-96.8429,2.0,215.3374221,42.63524364,-99999.0,'11111222,11111222,99999999' 
TABS,ioos:station:wmo:42048:1,2011-01-03T07:30:00Z,27.9396,-96.8429,2.0,215.4224985,45.22042238,-99999.0,'11111222,11111222,99999999' 
TABS,ioos:station:wmo:42048:1,2011-01-03T08:00:00Z,27.9396,-96.8429,2.0,219.1688185,39.88210752,-99999.0,'11111222,11111222,99999999' 
TABS,ioos:station:wmo:42048:1,2011-01-03T08:30:00Z,27.9396,-96.8429,2.0,220.3914417,48.93441529,-99999.0,'11111222,11111222,99999999' 
TABS,ioos:station:wmo:42048:1,2011-01-03T09:00:00Z,27.9396,-96.8429,2.0,220.1191057,48.6201738,-99999.0,'11111222,11111222,99999999' 
TABS,ioos:station:wmo:42048:1,2011-01-03T09:30:00Z,27.9396,-96.8429,2.0,214.3591906,47.71579403,-99999.0,'11111222,11111222,99999999' 
TABS,ioos:station:wmo:42048:1,2011-01-03T10:00:00Z,27.9396,-96.8429,2.0,210.8226407,41.8629311,-99999.0,'11111222,11111222,99999999' 
TABS,ioos:station:wmo:42048:1,2011-01-03T10:30:00Z,27.9396,-96.8429,2.0,217.5732166,49.67374558,-99999.0,'11111222,11111222,99999999' 
TABS,ioos:station:wmo:42048:1,2011-01-03T11:00:00Z,27.9396,-96.8429,2.0,216.5966667,54.58061927,-99999.0,'11111222,11111222,99999999' 
TABS,ioos:station:wmo:42048:1,2011-01-03T11:30:00Z,27.9396,-96.8429,2.0,213.8979935,52.66081086,-99999.0,'11111222,11111222,99999999' 
TABS,ioos:station:wmo:42048:1,2011-01-03T12:00:00Z,27.9396,-96.8429,2.0,213.8369192,55.07913761,-99999.0,'11111222,11111222,99999999' 
TABS,ioos:station:wmo:42048:1,2011-01-03T12:30:00Z,27.9396,-96.8429,2.0,208.6038786,50.77748024,-99999.0,'11111222,11111222,99999999' 
TABS,ioos:station:wmo:42048:1,2011-01-03T13:00:00Z,27.9396,-96.8429,2.0,213.1506933,51.58662811,-99999.0,'11111222,11111222,99999999' 
TABS,ioos:station:wmo:42048:1,2011-01-03T13:30:00Z,27.9396,-96.8429,2.0,208.7263688,46.83422894,-99999.0,'11111222,11111222,99999999' 
TABS,ioos:station:wmo:42048:1,2011-01-03T14:00:00Z,27.9396,-96.8429,2.0,215.6221787,47.12916931,-99999.0,'11111222,11111222,99999999' 
TABS,ioos:station:wmo:42048:1,2011-01-03T14:30:00Z,27.9396,-96.8429,2.0,223.2568735,44.8725406,-99999.0,'11111222,11111222,99999999' 
TABS,ioos:station:wmo:42048:1,2011-01-03T15:00:00Z,27.9396,-96.8429,2.0,223.8808077,43.09223248,-99999.0,'11111222,11111222,99999999' 
TABS,ioos:station:wmo:42048:1,2011-01-03T15:30:00Z,27.9396,-96.8429,2.0,224.8319357,43.47311123,-99999.0,'11111222,11111222,99999999' 
TABS,ioos:station:wmo:42048:1,2011-01-03T16:00:00Z,27.9396,-96.8429,2.0,223.3483753,39.26073102,-99999.0,'11111222,11111222,99999999' 
TABS,ioos:station:wmo:42048:1,2011-01-03T16:30:00Z,27.9396,-96.8429,2.0,228.7095164,42.40212259,-99999.0,'11111222,11111222,99999999' 
TABS,ioos:station:wmo:42048:1,2011-01-03T17:00:00Z,27.9396,-96.8429,2.0,222.1327752,49.34002533,-99999.0,'11111222,11111222,99999999' 
TABS,ioos:station:wmo:42048:1,2011-01-03T17:30:00Z,27.9396,-96.8429,2.0,218.9213998,49.8839824,-99999.0,'11111222,11111222,99999999' 
TABS,ioos:station:wmo:42048:1,2011-01-03T18:00:00Z,27.9396,-96.8429,2.0,216.934562,38.80802494,-99999.0,'11111222,11111222,99999999' 
TABS,ioos:station:wmo:42048:1,2011-01-03T18:30:00Z,27.9396,-96.8429,2.0,215.4282943,34.19081748,-99999.0,'11111222,11111222,99999999' 
TABS,ioos:station:wmo:42048:1,2011-01-03T19:00:00Z,27.9396,-96.8429,2.0,217.7849435,30.79793013,-99999.0,'11111222,11111222,99999999' 
TABS,ioos:station:wmo:42048:1,2011-01-03T19:30:00Z,27.9396,-96.8429,2.0,218.6050133,36.1245692,-99999.0,'11111222,11111222,99999999' 
TABS,ioos:station:wmo:42048:1,2011-01-03T20:00:00Z,27.9396,-96.8429,2.0,223.5134133,29.71555317,-99999.0,'11111222,11111222,99999999' 
TABS,ioos:station:wmo:42048:1,2011-01-03T20:30:00Z,27.9396,-96.8429,2.0,225.7398321,32.29626139,-99999.0,'11111222,11111222,99999999' 
TABS,ioos:station:wmo:42048:1,2011-01-03T21:00:00Z,27.9396,-96.8429,2.0,228.4044583,26.0746256,-99999.0,'11111222,11111222,99999999' 
TABS,ioos:station:wmo:42048:1,2011-01-03T21:30:00Z,27.9396,-96.8429,2.0,229.8452107,26.70386676,-99999.0,'11111222,11111222,99999999' 
TABS,ioos:station:wmo:42048:1,2011-01-03T22:00:00Z,27.9396,-96.8429,2.0,223.8281272,27.32124631,-99999.0,'11111222,11111222,99999999' 
TABS,ioos:station:wmo:42048:1,2011-01-03T22:30:00Z,27.9396,-96.8429,2.0,221.3714663,25.81163497,-99999.0,'11111222,11111222,99999999' 
TABS,ioos:station:wmo:42048:1,2011-01-03T23:00:00Z,27.9396,-96.8429,2.0,221.2040963,37.92046018,-99999.0,'11111222,11111222,99999999' 
TABS,ioos:station:wmo:42048:1,2011-01-03T23:30:00Z,27.9396,-96.8429,2.0,218.495689,37.14295761,-99999.0,'11111222,11111222,99999999' 
TABS,ioos:station:wmo:42048:1,2011-01-04T00:00:00Z,27.9396,-96.8429,2.0,213.0962743,31.05933032,-99999.0,'11111222,11111222,99999999' 
TABS,ioos:station:wmo:42048:1,2011-01-04T00:30:00Z,27.9396,-96.8429,2.0,219.2097752,28.45773357,-99999.0,'11111222,11111222,99999999' 
TABS,ioos:station:wmo:42048:1,2011-01-04T01:00:00Z,27.9396,-96.8429,2.0,223.6099668,31.77965544,-99999.0,'11111222,11111222,99999999' 
TABS,ioos:station:wmo:42048:1,2011-01-04T01:30:00Z,27.9396,-96.8429,2.0,218.3616124,36.94652622,-99999.0,'11111222,11111222,99999999' 
TABS,ioos:station:wmo:42048:1,2011-01-04T02:00:00Z,27.9396,-96.8429,2.0,213.1311881,43.52661944,-99999.0,'11111222,11111222,99999999' 
TABS,ioos:station:wmo:42048:1,2011-01-04T02:30:00Z,27.9396,-96.8429,2.0,217.1173979,44.39441519,-99999.0,'11111222,11111222,99999999' 
TABS,ioos:station:wmo:42048:1,2011-01-04T03:00:00Z,27.9396,-96.8429,2.0,210.4100036,40.47898467,-99999.0,'11111222,11111222,99999999' 
TABS,ioos:station:wmo:42048:1,2011-01-04T03:30:00Z,27.9396,-96.8429,2.0,85.99583642,2.004894012,-99999.0,'11133222,11111222,99999999' 
TABS,ioos:station:wmo:42048:1,2011-01-04T04:00:00Z,27.9396,-96.8429,2.0,217.9323085,40.11489997,-99999.0,'11111222,11111222,99999999' 
TABS,ioos:station:wmo:42048:1,2011-01-04T04:30:00Z,27.9396,-96.8429,2.0,236.9998088,66.9987776,-99999.0,'11111222,11111222,99999999' 
TABS,ioos:station:wmo:42048:1,2011-01-04T05:00:00Z,27.9396,-96.8429,2.0,218.5881916,33.87723867,-99999.0,'11111222,11111222,99999999' 
TABS,ioos:station:wmo:42048:1,2011-01-04T05:30:00Z,27.9396,-96.8429,2.0,223.9383181,32.82952939,-99999.0,'11111222,11111222,99999999' 
TABS,ioos:station:wmo:42048:1,2011-01-04T06:00:00Z,27.9396,-96.8429,2.0,221.9027529,30.36508521,-99999.0,'11111222,11111222,99999999' 
TABS,ioos:station:wmo:42048:1,2011-01-04T06:30:00Z,27.9396,-96.8429,2.0,219.9933913,31.19635395,-99999.0,'11111222,11111222,99999999' 
TABS,ioos:station:wmo:42048:1,2011-01-04T07:00:00Z,27.9396,-96.8429,2.0,238.9836405,35.7283151,-99999.0,'11111222,11111222,99999999' 
TABS,ioos:station:wmo:42048:1,2011-01-04T07:30:00Z,27.9396,-96.8429,2.0,230.5467085,38.69731903,-99999.0,'11111222,11111222,99999999' 
TABS,ioos:station:wmo:42048:1,2011-01-04T08:00:00Z,27.9396,-96.8429,2.0,229.3983794,38.62989128,-99999.0,'11111222,11111222,99999999' 
TABS,ioos:station:wmo:42048:1,2011-01-04T08:30:00Z,27.9396,-96.8429,2.0,225.2752892,39.69036281,-99999.0,'11111222,11111222,99999999' 
TABS,ioos:station:wmo:42048:1,2011-01-04T09:00:00Z,27.9396,-96.8429,2.0,220.4720713,36.63639311,-99999.0,'11111222,11111222,99999999' 
TABS,ioos:station:wmo:42048:1,2011-01-04T09:30:00Z,27.9396,-96.8429,2.0,217.6968361,35.60171063,-99999.0,'11111222,11111222,99999999' 
TABS,ioos:station:wmo:42048:1,2011-01-04T10:00:00Z,27.9396,-96.8429,2.0,215.526284,36.00189439,-99999.0,'11111222,11111222,99999999' 
TABS,ioos:station:wmo:42048:1,2011-01-04T10:30:00Z,27.9396,-96.8429,2.0,203.2230471,36.51894851,-99999.0,'11111222,11111222,99999999' 
TABS,ioos:station:wmo:42048:1,2011-01-04T11:00:00Z,27.9396,-96.8429,2.0,203.8878619,36.76977699,-99999.0,'11111222,11111222,99999999' 
TABS,ioos:station:wmo:42048:1,2011-01-04T11:30:00Z,27.9396,-96.8429,2.0,214.1737538,37.75978946,-99999.0,'11111222,11111222,99999999' 
TABS,ioos:station:wmo:42048:1,2011-01-04T12:00:00Z,27.9396,-96.8429,2.0,213.3472075,37.11010644,-99999.0,'11111222,11111222,99999999' 
TABS,ioos:station:wmo:42048:1,2011-01-04T12:30:00Z,27.9396,-96.8429,2.0,214.714506,35.04879028,-99999.0,'11111222,11111222,99999999' 
TABS,ioos:station:wmo:42048:1,2011-01-04T13:00:00Z,27.9396,-96.8429,2.0,218.3162635,36.7577162,-99999.0,'11111222,11111222,99999999' 
TABS,ioos:station:wmo:42048:1,2011-01-04T13:30:00Z,27.9396,-96.8429,2.0,224.5953975,39.08276474,-99999.0,'11111222,11111222,99999999' 
TABS,ioos:station:wmo:42048:1,2011-01-04T14:00:00Z,27.9396,-96.8429,2.0,231.7566745,41.64795913,-99999.0,'11111222,11111222,99999999' 
TABS,ioos:station:wmo:42048:1,2011-01-04T14:30:00Z,27.9396,-96.8429,2.0,229.7553294,42.13305116,-99999.0,'11111222,11111222,99999999' 
TABS,ioos:station:wmo:42048:1,2011-01-04T15:00:00Z,27.9396,-96.8429,2.0,225.7455027,41.82890986,-99999.0,'11111222,11111222,99999999' 
TABS,ioos:station:wmo:42048:1,2011-01-04T15:30:00Z,27.9396,-96.8429,2.0,229.1563326,41.85059737,-99999.0,'11111222,11111222,99999999' 
TABS,ioos:station:wmo:42048:1,2011-01-04T16:00:00Z,27.9396,-96.8429,2.0,231.2162554,41.98741359,-99999.0,'11111222,11111222,99999999' 
TABS,ioos:station:wmo:42048:1,2011-01-04T16:30:00Z,27.9396,-96.8429,2.0,229.9179364,40.90825833,-99999.0,'11111222,11111222,99999999' 
TABS,ioos:station:wmo:42048:1,2011-01-04T17:00:00Z,27.9396,-96.8429,2.0,233.1949937,42.16402732,-99999.0,'11111222,11111222,99999999' 
TABS,ioos:station:wmo:42048:1,2011-01-04T17:30:00Z,27.9396,-96.8429,2.0,233.6056297,42.62347006,-99999.0,'11111222,11111222,99999999' 